Content
SEND FEEDBACK

Daily
Averages
Monthly
Summary
Canada

PRINCE RUPERT, BRITISH COLUMBIA


Home > North America > Canada > British Columbia
Elevation: 111 feet     Latitude: 54 17N     Longitude: 130 27W

WEATHER
 
SELECT A DAY
Number of Records: 357,150;   Date Range: 1/1/95 - 11/27/14
 
SHARE

PRINT THIS DATA

[ ← Previous Day ]
WEATHER ALMANAC - JANUARY 19, 2013
[ Next Day → ]
[ °C ]   °F
Weather ElementAverageHighLow
Temperature40.6 °F44.6 °F (12:00 pm)35.6 °F (9:00 pm)
Dewpoint39.4 °F42.8 °F (1:00 pm)35.6 °F (9:00 pm)
Humidity95.5 %100 % (12:06 am)87 % (12:00 pm)
Barometer30.28 in30.29 in (12:00 pm)30.26 in (6:00 pm)
Wind Speed4 mph8.1 mph (10:00 am)
Weather ElementAverage
Visibility7.3 mi
Wind DirectionENE (80.3 °)

Weather ElementTotal
Precipitation---
Heating Degree Days24.9 (Base 65)
Averaged from 35 records on January 19, 2013
WEATHER CONDITIONS BREAKOUT
WIND DIRECTION BREAKOUT
WEATHER BY HOUR - JANUARY 19, 2013
[ °C ]   °F
Local TimeTemperatureDewpointHumidityBarometerVisibilityWind DirectionWind SpeedGust SpeedPrecipitationEventsConditions
12:06 AM39.2 °F39.2 °F100 %30.28 in4.0 miEast (90°)4.6 mphOvercast
12:10 AM39.2 °F39.2 °F100 %30.28 in2.5 miEast (80°)3.5 mphOvercast
12:13 AM39.2 °F39.2 °F100 %30.28 in2.2 miENE (70°)3.5 mphRainLight Rain
12:19 AM39.2 °F39.2 °F100 %30.28 in3.0 miEast (80°)3.5 mphRainLight Rain
12:24 AM39.2 °F39.2 °F100 %30.28 in6.0 miEast (80°)3.5 mphRainLight Rain
12:27 AM39.2 °F39.2 °F100 %30.27 in8.0 miENE (70°)3.5 mphOvercast
1:14 AM39.2 °F39.2 °F100 %30.27 in5.0 miEast (80°)3.5 mphOvercast
1:29 AM39.2 °F39.2 °F100 %30.28 in2.5 miENE (70°)4.6 mphOvercast
1:32 AM39.2 °F39.2 °F100 %30.27 in3.0 miEast (80°)4.6 mphOvercast
1:44 AM39.2 °F39.2 °F100 %30.27 in6.0 miEast (80°)4.6 mphOvercast
1:49 AM39.2 °F39.2 °F100 %30.27 in5.0 miEast (80°)6.9 mphOvercast
1:52 AM39.2 °F39.2 °F100 %30.27 in5.0 miEast (80°)5.8 mphRainLight Rain
2:00 AM41.0 °F39.2 °F93 %30.27 in7.0 miEast (90°)4.6 mphRainLight Rain
2:06 AM41.0 °F39.2 °F93 %30.27 in9.0 miENE (70°)4.6 mphOvercast
2:09 AM41.0 °F39.2 °F93 %30.27 in9.0 miENE (70°)3.5 mphOvercast
3:00 AM39.2 °F39.2 °F100 %30.28 in9.0 miVariable2.3 mphOvercast
5:00 AM41.0 °F39.2 °F93 %30.28 in9.0 miVariable2.3 mphOvercast
6:00 AM41.0 °F39.2 °F93 %30.27 in9.0 miENE (60°)6.9 mphOvercast
7:00 AM41.0 °F39.2 °F93 %30.27 in9.0 miCalmOvercast
8:00 AM41.0 °F39.2 °F93 %30.27 in9.0 miEast (100°)6.9 mphOvercast
9:00 AM41.0 °F39.2 °F93 %30.28 in9.0 miENE (70°)6.9 mphOvercast
10:00 AM41.0 °F39.2 °F93 %30.28 in9.0 miEast (80°)8.1 mphOvercast
11:00 AM41.0 °F39.2 °F93 %30.27 in9.0 miENE (70°)8.1 mphOvercast
12:00 PM44.6 °F41.0 °F87 %30.29 in9.0 miVariable2.3 mphMostly Cloudy
1:00 PM44.6 °F42.8 °F93 %30.29 in9.0 miNE (40°)2.3 mphOvercast
2:00 PM44.6 °F41.0 °F87 %30.29 in9.0 miVariable2.3 mphOvercast
3:00 PM44.6 °F42.8 °F93 %30.28 in9.0 miVariable2.3 mphClear
4:00 PM44.6 °F41.0 °F87 %30.28 in9.0 miNorth (350°)2.3 mphClear
5:00 PM44.6 °F41.0 °F87 %30.27 in9.0 miVariable2.3 mphMostly Cloudy
6:00 PM42.8 °F39.2 °F87 %30.26 in9.0 miEast (80°)2.3 mphOvercast
7:00 PM41.0 °F39.2 °F93 %30.26 in9.0 miNorth (350°)2.3 mphScattered Clouds
8:00 PM39.2 °F39.2 °F100 %30.27 in9.0 miNW (310°)2.3 mphScattered Clouds
9:00 PM35.6 °F35.6 °F100 %30.28 in9.0 miVariable2.3 mphClear
10:00 PM37.4 °F37.4 °F100 %30.28 in9.0 miENE (70°)4.6 mphClear
11:00 PM37.4 °F37.4 °F100 %30.29 in9.0 miENE (60°)5.8 mphMostly Cloudy
Hourly data recorded from CYPR, located miles away from Prince Rupert, British Columbia







STORIES FROM OUR PARTNERS